Location: ????????
(55.8351°N, 38.7040°E)
Time: 09:34:13
(UTC+00:00)

Meteor 2-10 - Pass Details

Date: 14 April 2024
Orbit: 738 x 866 km, 81.2° (Epoch: 20 May)

Event Time Altitude Azimuth Distance (km) Brightness Sun altitude
Rises 00:26:11 0° 344° (NNW) 3,369 7.7 -14.7°
Reaches altitude 10° 00:28:34 10° 343° (NNW) 2,450 6.9 -14.4°
Maximum altitude 00:34:07 74° 259° (W) 887 4.2 -13.9°
Drops below altitude 10° 00:39:47 10° 176° (S) 2,495 6.3 -13.3°
Sets 00:42:13 0° 174° (S) 3,434 7.0 -13.0°
